Weather History for CYCO - March, 2013

Change the Weather History Date:

Wednesday, March 6, 2013

  Actual Average Record
Temperature  
Mean Temperature -32 °F -  
Max Temperature -25 °F -7 °F 17 °F (2006)
Min Temperature -40 °F -21 °F -40 °F (2013)
Degree Days  
Heating Degree Days 98    
Moisture  
Dew Point -38 °F    
Average Humidity 66    
Maximum Humidity 75    
Minimum Humidity 39    
Precipitation  
Precipitation 0.00 in - - ()
Sea Level Pressure  
Sea Level Pressure 30.47 in    
Wind  
Wind Speed 12 mph ()    
Max Wind Speed 21 mph    
Max Gust Speed 23 mph    
Visibility 11.6 miles    
Events Snow    
Averages and records for this station are not official NWS values.
T = Trace of Precipitation, MM = Missing Value Source: Averaged Metar Reports

Daily Weather History Graph

Daily Weather History Graph

Search for Another Location

Airport or City:

Trip Planner

Search our weather history database for the weather conditions in past years. The results will help you decide how hot, cold, wet, or windy it might be!

Date:

Astronomy

Mar. 06, 2013 Rise Set
Actual Time 7:36 AM MST 6:08 PM MST
Civil Twilight 6:41 AM MST 7:03 PM MST
Nautical Twilight 5:37 AM MST 8:08 PM MST
Astronomical Twilight 4:28 AM MST 9:18 PM MST
Moon 6:15 AM MST (3/6) 10:31 AM MST (3/6)
Length of Visible Light 12h 21m
Length of Day
10h 31m
Waning Crescent, 29% of the Moon is Illuminated
Mar 6
Waning Crescent
Mar 11
New
Mar 19
First Quarter
Mar 27
Full
Apr 2
Last Quarter

Hourly Weather History & Observations

Time (MST) Temp. Windchill Dew Point Humidity Pressure Visibility Wind Dir Wind Speed Gust Speed Precip Events Conditions
12:00 AM -40.0 °F -67.2 °F - N/A% 30.47 in 10.0 mi SW 11.5 mph - N/A   Clear
1:00 AM -38.2 °F -67.3 °F - N/A% 30.48 in 7.0 mi WSW 13.8 mph - N/A Snow Low Drifting Snow
2:00 AM -36.4 °F -62.7 °F - N/A% 30.48 in 6.0 mi WSW 11.5 mph - N/A Snow Ice Crystals
3:00 AM -32.8 °F -54.1 °F -40.0 °F 68% 30.48 in 8.0 mi WSW 8.1 mph - N/A   Clear
4:00 AM -32.8 °F -61.4 °F -40.0 °F 68% 30.48 in 6.0 mi West 15.0 mph - N/A   Ice Crystals
5:00 AM -33 °F - -39 °F 57% 30.47 in 6 mi WSW 16.1 mph - - Snow Snow
5:00 AM -32.8 °F -58.2 °F -38.2 °F 75% 30.47 in 6.0 mi WSW 11.5 mph 19.6 mph N/A Snow Ice Crystals
6:00 AM -32.8 °F -58.2 °F -40.0 °F 68% 30.47 in 10.0 mi West 11.5 mph 19.6 mph N/A Snow Low Drifting Snow
7:00 AM -32.8 °F -60.4 °F -40.0 °F 68% 30.47 in 10.0 mi West 13.8 mph 20.7 mph N/A Snow Low Drifting Snow
8:00 AM -32.8 °F -58.2 °F -38.2 °F 75% 30.47 in 6.0 mi WSW 11.5 mph - N/A Snow Ice Crystals
9:00 AM -34.6 °F -64.6 °F -40.0 °F 75% 30.47 in 10.0 mi WSW 16.1 mph - N/A Snow Low Drifting Snow
9:46 AM - - - N/A% - 15.0 mi WSW 11.5 mph 17.3 mph N/A   Unknown
10:00 AM -34.6 °F -65.5 °F -40.0 °F 75% 30.47 in 15.0 mi WSW 17.3 mph - N/A Snow Low Drifting Snow
11:00 AM -31 °F - -37 °F 58% 30.47 in 15 mi West 17.3 mph - -   Partly Cloudy
11:00 AM -31.0 °F -60.8 °F -36.4 °F 75% 30.47 in 15.0 mi West 17.3 mph - N/A Snow Low Drifting Snow
12:00 PM -29.2 °F -53.7 °F -40.0 °F 56% 30.47 in 15.0 mi WSW 11.5 mph 17.3 mph N/A Snow Low Drifting Snow
1:00 PM -29.2 °F -53.7 °F -34.6 °F 75% 30.47 in 15.0 mi WSW 11.5 mph 17.3 mph N/A Snow Low Drifting Snow
2:00 PM -27.4 °F -51.4 °F -38.2 °F 57% 30.46 in 15.0 mi WSW 11.5 mph 17.3 mph N/A Snow Low Drifting Snow
3:00 PM -25.6 °F -49.2 °F -36.4 °F 57% 30.47 in 15.0 mi West 11.5 mph 17.3 mph N/A Snow Low Drifting Snow
4:00 PM -25.6 °F -53.8 °F -36.4 °F 57% 30.46 in 15.0 mi West 17.3 mph 23.0 mph N/A Snow Low Drifting Snow
5:00 PM -26 °F - -36 °F 39% 30.46 in 15 mi West 20.7 mph - - Snow Heavy Low Drifting Snow
5:00 PM -25.6 °F -53.8 °F -36.4 °F 57% 30.46 in 15.0 mi West 17.3 mph 23.0 mph N/A Snow Low Drifting Snow
6:00 PM -27.4 °F -56.1 °F -34.6 °F 69% 30.46 in 15.0 mi West 17.3 mph - N/A Snow Low Drifting Snow
7:00 PM -27.4 °F -54.5 °F -38.2 °F 57% 30.45 in 15.0 mi West 15.0 mph - N/A Snow Low Drifting Snow
8:00 PM -29.2 °F -56.8 °F -34.6 °F 75% 30.45 in 15.0 mi West 15.0 mph - N/A Snow Low Drifting Snow
9:00 PM -31.0 °F -57.1 °F -36.4 °F 75% 30.46 in 12.0 mi SW 12.7 mph - N/A Snow Low Drifting Snow
10:00 PM -31.0 °F -56.0 °F -36.4 °F 75% 30.46 in 10.0 mi WSW 11.5 mph 18.4 mph N/A Snow Low Drifting Snow
11:00 PM -32 °F - -38 °F 59% 30.46 in 10 mi WSW 15.0 mph - - Snow Snow
11:00 PM -31.0 °F -56.0 °F -38.2 °F 68% 30.46 in 10.0 mi WSW 11.5 mph 17.3 mph N/A Snow Low Drifting Snow